Location: Lahitte
(43.6596°N, 0.6805°E)
Time: 11:38:28
(UTC+00:00)

Cosmos 1825 Rocket - Pass Details

Date: 15 May 2026
Orbit: 598 x 622 km, 82.5° (Epoch: 9 June)

Event Time Altitude Azimuth Distance (km) Brightness Sun altitude
Rises 22:06:47 0° 346° (NNW) 2,873 8.3 -22.7°
Reaches altitude 10° 22:09:02 10° 342° (NNW) 1,968 7.2 -22.9°
Maximum altitude 22:13:16 53° 266° (W) 756 4.0 -23.2°
Enters shadow 22:13:54 48° 235° (SW) 803 4.0 -23.3°
